Location: Croissy-Beaubourg
(48.8283°N, 2.6696°E)
Time: 01:10:03
(UTC+00:00)

USA 215 - Pass Details

Date: 02 June 2022
Orbit: 1099 x 1108 km, 123.0° (Epoch: 10 June)

Event Time Altitude Azimuth Distance (km) Brightness Sun altitude
Rises 00:27:56 0° 55° (NE) 3,925 6.8 -18.4°
Reaches altitude 10° 00:30:25 10° 56° (NE) 2,966 6.1 -18.4°
Maximum altitude 00:36:59 89° 142° (SE) 1,110 3.2 -18.1°
Enters shadow 00:42:37 15° 238° (WSW) 2,602 4.8 -17.9°
